Cape Girardeau, MO

1:41 PM CDT on April 23, 2018 (GMT -0500)
Cape Girardeau Regional

Weather History for KCGI - January, 2012

Change the Weather History Date:

Wednesday, January 4, 2012

  Actual Average Record
Temperature  
Mean Temperature 38 °F 33 °F  
Max Temperature 49 °F 42 °F 69 °F (1997)
Min Temperature 27 °F 24 °F 6 °F (2018)
Degree Days  
Heating Degree Days 27    
Month to date heating degree days 119  
Since 1 July heating degree days 1595  
Cooling Degree Days 0    
Month to date cooling degree days 0  
Year to date cooling degree days 0  
Moisture  
Dew Point 25 °F    
Average Humidity 67    
Maximum Humidity 92    
Minimum Humidity 42    
Precipitation  
Precipitation 0.00 in 0.12 in 2.54 in (1993)
Month to date precipitation 0.00 0.48  
Year to date precipitation 0.00 0.48  
Sea Level Pressure  
Sea Level Pressure 30.18 in    
Wind  
Wind Speed 6 mph (SSW)    
Max Wind Speed 12 mph    
Max Gust Speed 16 mph    
Visibility 10 miles    
Events      
T = Trace of Precipitation, MM = Missing Value Source: NWS Daily Summary

Daily Weather History Graph

Daily Weather History Graph

Search for Another Location

Airport or City:

Astronomy

Jan. 04, 2012 Rise Set
Actual Time 7:12 AM CST 4:53 PM CST
Civil Twilight 6:43 AM CST 5:22 PM CST
Nautical Twilight 6:11 AM CST 5:55 PM CST
Astronomical Twilight 5:39 AM CST 6:26 PM CST
Moon 1:15 PM CST (1/4) 3:01 AM CST (1/4)
Length of Visible Light 10h 39m
Length of Day
9h 41m
Waxing Gibbous, 81% of the Moon is Illuminated
Jan 4
Waxing Gibbous
Jan 9
Full
Jan 16
Last Quarter
Jan 23
New
Jan 30
First Quarter

Hourly Weather History & Observations

Time (CST) Temp. Windchill Dew Point Humidity Pressure Visibility Wind Dir Wind Speed Gust Speed Precip Events Conditions
12:53 AM 30.0 °F 21.7 °F 19.0 °F 64% 30.26 in 10.0 mi South 9.2 mph - N/A   Clear
1:53 AM 30.2 °F 22.6 °F 19.4 °F 64% 30.22 in 10.0 mi South 8.1 mph - N/A   Clear
2:53 AM 30.9 °F 24.3 °F 21.0 °F 67% 30.22 in 10.0 mi SSW 6.9 mph - N/A   Clear
3:53 AM 30.0 °F 22.4 °F 21.0 °F 69% 30.20 in 10.0 mi SSW 8.1 mph - N/A   Clear
4:53 AM 30.9 °F 22.8 °F 21.0 °F 67% 30.19 in 10.0 mi SSW 9.2 mph - N/A   Clear
5:53 AM 30.0 °F 23.2 °F 21.9 °F 72% 30.19 in 10.0 mi SSW 6.9 mph - N/A   Clear
6:53 AM 30.0 °F 24.1 °F 21.9 °F 72% 30.19 in 10.0 mi SSW 5.8 mph - N/A   Clear
7:53 AM 30.0 °F 23.2 °F 21.9 °F 72% 30.18 in 10.0 mi SSW 6.9 mph - N/A   Clear
8:53 AM 34.0 °F 28.8 °F 23.0 °F 64% 30.18 in 10.0 mi South 5.8 mph - N/A   Clear
9:53 AM 37.9 °F 30.9 °F 24.1 °F 57% 30.17 in 10.0 mi SSW 10.4 mph - N/A   Clear
10:53 AM 41.0 °F 35.2 °F 24.1 °F 51% 30.17 in 10.0 mi WSW 9.2 mph - N/A   Clear
11:53 AM 44.1 °F 38.6 °F 25.0 °F 47% 30.13 in 10.0 mi WSW 10.4 mph - N/A   Clear
12:53 PM 46.0 °F 42.5 °F 25.0 °F 44% 30.11 in 10.0 mi SW 6.9 mph - N/A   Clear
1:53 PM 48.0 °F - 26.1 °F 42% 30.10 in 10.0 mi SSW 5.8 mph - N/A   Clear
2:53 PM 48.9 °F - 28.0 °F 44% 30.10 in 10.0 mi South 8.1 mph - N/A   Clear
3:53 PM 48.0 °F - 28.9 °F 48% 30.12 in 10.0 mi SSW 5.8 mph - N/A   Clear
4:53 PM 42.1 °F 40.2 °F 30.0 °F 62% 30.15 in 10.0 mi SSW 3.5 mph - N/A   Clear
5:53 PM 37.9 °F - 30.0 °F 73% 30.18 in 10.0 mi Calm Calm - N/A   Clear
6:53 PM 37.0 °F - 28.9 °F 73% 30.20 in 10.0 mi Calm Calm - N/A   Clear
7:53 PM 30.9 °F - 27.0 °F 85% 30.21 in 10.0 mi Calm Calm - N/A   Clear
8:53 PM 28.9 °F 25.2 °F 25.0 °F 85% 30.22 in 10.0 mi SW 3.5 mph - N/A   Clear
9:53 PM 28.9 °F - 26.1 °F 89% 30.23 in 10.0 mi Calm Calm - N/A   Clear
10:53 PM 32.0 °F 28.7 °F 27.0 °F 82% 30.21 in 10.0 mi WSW 3.5 mph - N/A   Clear
11:53 PM 32.0 °F - 28.0 °F 85% 30.20 in 10.0 mi Calm Calm - N/A   Clear